Weather History for Mosinee, WI

Change the Weather History Date:

Tuesday, September 17, 2013

  Actual Average Record
Temperature  
Mean Temperature 50 °F -  
Max Temperature 64 °F 66 °F 84 °F (1998)
Min Temperature 35 °F 45 °F 33 °F (2011)
Degree Days  
Heating Degree Days 16    
Moisture  
Dew Point 45 °F    
Average Humidity 93    
Maximum Humidity 100    
Minimum Humidity 59    
Precipitation  
Precipitation 0.08 in - - ()
Sea Level Pressure  
Sea Level Pressure 30.27 in    
Wind  
Wind Speed 3 mph (SE)    
Max Wind Speed 15 mph    
Max Gust Speed -    
Visibility 9 miles    
Events Rain    
Averages and records for this station are not official NWS values.
T = Trace of Precipitation, MM = Missing Value Source: NWS Daily Summary

Daily Weather History Graph

Daily Weather History Graph

Search for Another Location

Airport:

Trip Planner

Search our weather history database for the weather conditions in past years. The results will help you decide how hot, cold, wet, or windy it might be!

Date:

Astronomy

Sep. 17, 2013 Rise Set
Actual Time 6:40 AM CDT 7:05 PM CDT
Civil Twilight 6:10 AM CDT 7:34 PM CDT
Nautical Twilight 5:36 AM CDT 8:08 PM CDT
Astronomical Twilight 5:00 AM CDT 8:44 PM CDT
Moon 5:54 PM CDT (9/17) 4:31 AM CDT (9/17)
Length of Visible Light 13h 23m
Length of Day
12h 25m
Waxing Gibbous, 96% of the Moon is Illuminated
Sep 17
Waxing Gibbous
Sep 19
Full
Sep 26
Last Quarter
Oct 4
New
Oct 11
First Quarter

Hourly Weather History & Observations

Time (CDT) Temp. Windchill Dew Point Humidity Pressure Visibility Wind Dir Wind Speed Gust Speed Precip Events Conditions
12:15 AM 42.8 °F 41.1 °F 41.0 °F 93% 30.36 in 10.0 mi ESE 3.5 mph - N/A   Clear
12:35 AM 41.0 °F 39.0 °F 41.0 °F 100% 30.36 in 10.0 mi ESE 3.5 mph - N/A   Clear
12:55 AM 41.0 °F 39.0 °F 41.0 °F 100% 30.36 in 10.0 mi ESE 3.5 mph - N/A   Clear
1:15 AM 41.0 °F - 41.0 °F 100% 30.36 in 10.0 mi Calm Calm - N/A   Clear
1:35 AM 41.0 °F - 41.0 °F 100% 30.36 in 10.0 mi Calm Calm - N/A   Clear
1:55 AM 41.0 °F 39.0 °F 41.0 °F 100% 30.36 in 10.0 mi SE 3.5 mph - N/A   Clear
2:15 AM 41.0 °F 39.0 °F 41.0 °F 100% 30.36 in 10.0 mi SSE 3.5 mph - N/A   Clear
2:35 AM 41.0 °F 39.0 °F 41.0 °F 100% 30.35 in 10.0 mi SSE 3.5 mph - N/A   Clear
2:55 AM 39.2 °F - 39.2 °F 100% 30.36 in 10.0 mi Calm Calm - N/A   Clear
3:15 AM 39.2 °F - 39.2 °F 100% 30.36 in 10.0 mi Calm Calm - N/A   Clear
3:35 AM 39.2 °F - 39.2 °F 100% 30.36 in 10.0 mi Calm Calm - N/A   Clear
3:55 AM 39.2 °F - 39.2 °F 100% 30.35 in 7.0 mi Calm Calm - N/A   Clear
4:15 AM 41.0 °F - 41.0 °F 100% 30.35 in 7.0 mi Calm Calm - N/A   Clear
4:35 AM 37.4 °F - 37.4 °F 100% 30.34 in 1.2 mi Calm Calm - N/A   Mist
4:55 AM 35.6 °F - 35.6 °F 100% 30.34 in 7.0 mi Calm Calm - N/A   Clear
5:15 AM 35.6 °F 32.8 °F 35.6 °F 100% 30.34 in 10.0 mi ESE 3.5 mph - N/A   Clear
5:35 AM 35.6 °F 32.8 °F 35.6 °F 100% 30.33 in 5.0 mi East 3.5 mph - N/A   Clear
5:50 AM 37.4 °F - 37.4 °F 100% 30.33 in 10.0 mi Calm Calm - N/A   Clear
6:50 AM 35.6 °F - 35.6 °F 100% 30.33 in 10.0 mi Calm Calm - N/A   Clear
7:45 AM 37.4 °F 34.9 °F 37.4 °F 100% 30.34 in 10.0 mi East 3.5 mph - N/A   Mostly Cloudy
8:45 AM 46.4 °F 44.3 °F 46.4 °F 100% 30.33 in 10.0 mi SE 4.6 mph - N/A   Mostly Cloudy
9:45 AM 51.8 °F - 51.8 °F 100% 30.32 in 10.0 mi SE 5.8 mph - N/A   Scattered Clouds
10:47 AM 55.4 °F - 51.8 °F 88% 30.31 in 10.0 mi SSE 8.1 mph - N/A   Mostly Cloudy
11:50 AM 59.0 °F - 50.0 °F 72% 30.28 in 10.0 mi South 15.0 mph - N/A   Mostly Cloudy
12:45 PM 62.6 °F - 50.0 °F 63% 30.26 in 10.0 mi SSE 10.4 mph - N/A   Scattered Clouds
1:45 PM 62.6 °F - 48.2 °F 59% 30.23 in 10.0 mi SE 6.9 mph - N/A   Scattered Clouds
3:45 PM 64.4 °F - 50.0 °F 59% 30.18 in 10.0 mi SSE 10.4 mph - N/A   Clear
4:45 PM 62.6 °F - 51.8 °F 68% 30.16 in 10.0 mi SSE 10.4 mph - N/A   Clear
5:45 PM 60.8 °F - 51.8 °F 72% 30.14 in 10.0 mi SE 6.9 mph - N/A   Scattered Clouds
6:50 PM 57.2 °F - 53.6 °F 88% 30.13 in 10.0 mi Variable 3.5 mph - N/A   Scattered Clouds
7:45 PM 57.2 °F - 53.6 °F 88% 30.12 in 7.0 mi Variable 3.5 mph - N/A   Scattered Clouds
8:45 PM 57.2 °F - 53.6 °F 88% 30.12 in 7.0 mi Variable 4.6 mph - N/A Rain Light Rain
9:45 PM 55.4 °F - 53.6 °F 94% 30.12 in 7.0 mi Calm Calm - N/A Rain Rain
10:15 PM 55.4 °F - 53.6 °F 94% 30.12 in 10.0 mi Calm Calm - 0.01 in Rain Light Rain
10:35 PM 55.4 °F - 53.6 °F 94% 30.12 in 10.0 mi SE 3.5 mph - 0.01 in Rain Light Rain
10:55 PM 53.6 °F - 53.6 °F 100% 30.11 in 10.0 mi ESE 4.6 mph - 0.02 in Rain Light Rain
11:15 PM 53.6 °F - 53.6 °F 100% 30.10 in 5.0 mi SE 4.6 mph - 0.01 in Rain Heavy Rain
11:35 PM 53.6 °F - 53.6 °F 100% 30.10 in 7.0 mi ESE 4.6 mph - 0.02 in Rain Rain
11:55 PM 53.6 °F - 53.6 °F 100% 30.09 in 5.0 mi ESE 5.8 mph - 0.06 in Rain Light Rain